Tracking 20628 objects as of 5-Apr-2020
HD Live streaming from Space Station
objects crossing your sky now

SL-14 DEB

Track SL-14 DEB now!
10-day predictions


NORAD ID: 35524
Int'l Code: 1987-068CT
Perigee: 869.9 km
Apogee: 908.9 km
Inclination: 82.5 °
Period: 102.6 minutes
Semi major axis: 7260 km
RCS: 0.005 m2 (small)
Launch date: August 18, 1987
Source: Commonwealth of Independent States (former USSR) (CIS)
Launch site: PLESETSK MISSILE AND SPACE COMPLEX (PKMTR)

Note: This is SATELLITE DEBRIS
aabbcc
Your satellite tracking list
Your tracking list is empty




NASA's NSSDC Master Catalog

Two Line Element Set (TLE):
1 35524U 87068CT  20094.45095681  .00000509  00000-0  31494-3 0  9999
2 35524  82.5159 160.6111 0026902  12.8672 347.3179 14.03335577862583
Source of the keplerian elements: AFSPC